<?xml version="1.0" encoding="UTF-8" standalone="no" ?>
<gpx xmlns="http://www.topografix.com/GPX/1/1" xmlns:xsi="http://www.w3.org/2001/XMLSchema-instance" xsi:schemaLocation="http://www.topografix.com/GPX/1/1 http://www.topografix.com/GPX/1/1/gpx.xsd" version="1.1" creator="VisuGPX - https://www.visugpx.com">
  <metadata>
    <name>vtt_2026_16_km_le_dernier</name>
  </metadata>
  <trk>
    <name><![CDATA[VTT 2026 - 16 km LE DERNIER-22498711]]></name>
    <extensions>
      <line xmlns="http://www.topografix.com/GPX/gpx_style/0/2">
        <color>0000FF</color>
        <width>4</width>
      </line>
    </extensions>
    <trkseg>
      <trkpt lat="45.99804" lon="4.17563">
        <ele>436</ele>
        <time>2026-03-19T14:37:18Z</time>
      </trkpt>
      <trkpt lat="45.99804" lon="4.17569">
        <ele>436</ele>
        <time>2026-03-19T14:37:19Z</time>
      </trkpt>
      <trkpt lat="45.99804" lon="4.17571">
        <ele>436</ele>
        <time>2026-03-19T14:37:19Z</time>
      </trkpt>
      <trkpt lat="45.99808" lon="4.17575">
        <ele>436</ele>
        <time>2026-03-19T14:37:20Z</time>
      </trkpt>
      <trkpt lat="45.99811" lon="4.17575">
        <ele>436</ele>
        <time>2026-03-19T14:37:21Z</time>
      </trkpt>
      <trkpt lat="45.99814" lon="4.17571">
        <ele>436</ele>
        <time>2026-03-19T14:37:22Z</time>
      </trkpt>
      <trkpt lat="45.99821" lon="4.17589">
        <ele>436</ele>
        <time>2026-03-19T14:37:25Z</time>
      </trkpt>
      <trkpt lat="45.99844" lon="4.17653">
        <ele>437</ele>
        <time>2026-03-19T14:37:37Z</time>
      </trkpt>
      <trkpt lat="45.99855" lon="4.1769">
        <ele>438</ele>
        <time>2026-03-19T14:37:44Z</time>
      </trkpt>
      <trkpt lat="45.99851" lon="4.17701">
        <ele>438</ele>
        <time>2026-03-19T14:37:46Z</time>
      </trkpt>
      <trkpt lat="45.99845" lon="4.17708">
        <ele>438</ele>
        <time>2026-03-19T14:37:47Z</time>
      </trkpt>
      <trkpt lat="45.99838" lon="4.17715">
        <ele>438</ele>
        <time>2026-03-19T14:37:49Z</time>
      </trkpt>
      <trkpt lat="45.99864" lon="4.1777">
        <ele>438</ele>
        <time>2026-03-19T14:38:00Z</time>
      </trkpt>
      <trkpt lat="45.99825" lon="4.17809">
        <ele>438</ele>
        <time>2026-03-19T14:38:11Z</time>
      </trkpt>
      <trkpt lat="45.99802" lon="4.17832">
        <ele>437</ele>
        <time>2026-03-19T14:38:18Z</time>
      </trkpt>
      <trkpt lat="45.99736" lon="4.17894">
        <ele>435</ele>
        <time>2026-03-19T14:38:36Z</time>
      </trkpt>
      <trkpt lat="45.99688" lon="4.17945">
        <ele>433</ele>
        <time>2026-03-19T14:38:50Z</time>
      </trkpt>
      <trkpt lat="45.99669" lon="4.17965">
        <ele>431</ele>
        <time>2026-03-19T14:38:56Z</time>
      </trkpt>
      <trkpt lat="45.99635" lon="4.17999">
        <ele>426</ele>
        <time>2026-03-19T14:39:05Z</time>
      </trkpt>
      <trkpt lat="45.99636" lon="4.18024">
        <ele>426</ele>
        <time>2026-03-19T14:39:09Z</time>
      </trkpt>
      <trkpt lat="45.9958" lon="4.1806">
        <ele>419</ele>
        <time>2026-03-19T14:39:24Z</time>
      </trkpt>
      <trkpt lat="45.99575" lon="4.18064">
        <ele>418</ele>
        <time>2026-03-19T14:39:25Z</time>
      </trkpt>
      <trkpt lat="45.9953" lon="4.18139">
        <ele>409</ele>
        <time>2026-03-19T14:39:41Z</time>
      </trkpt>
      <trkpt lat="45.99523" lon="4.18149">
        <ele>408</ele>
        <time>2026-03-19T14:39:43Z</time>
      </trkpt>
      <trkpt lat="45.99514" lon="4.18162">
        <ele>406</ele>
        <time>2026-03-19T14:39:46Z</time>
      </trkpt>
      <trkpt lat="45.99506" lon="4.18169">
        <ele>405</ele>
        <time>2026-03-19T14:39:49Z</time>
      </trkpt>
      <trkpt lat="45.99492" lon="4.18178">
        <ele>402</ele>
        <time>2026-03-19T14:39:52Z</time>
      </trkpt>
      <trkpt lat="45.99487" lon="4.18182">
        <ele>401</ele>
        <time>2026-03-19T14:39:54Z</time>
      </trkpt>
      <trkpt lat="45.9948" lon="4.18189">
        <ele>399</ele>
        <time>2026-03-19T14:39:56Z</time>
      </trkpt>
      <trkpt lat="45.99473" lon="4.18198">
        <ele>398</ele>
        <time>2026-03-19T14:39:58Z</time>
      </trkpt>
      <trkpt lat="45.99453" lon="4.1824">
        <ele>393</ele>
        <time>2026-03-19T14:40:06Z</time>
      </trkpt>
      <trkpt lat="45.99443" lon="4.18258">
        <ele>390</ele>
        <time>2026-03-19T14:40:10Z</time>
      </trkpt>
      <trkpt lat="45.99436" lon="4.18266">
        <ele>389</ele>
        <time>2026-03-19T14:40:12Z</time>
      </trkpt>
      <trkpt lat="45.99427" lon="4.18272">
        <ele>387</ele>
        <time>2026-03-19T14:40:14Z</time>
      </trkpt>
      <trkpt lat="45.99354" lon="4.18305">
        <ele>374</ele>
        <time>2026-03-19T14:40:32Z</time>
      </trkpt>
      <trkpt lat="45.99307" lon="4.18322">
        <ele>368</ele>
        <time>2026-03-19T14:40:43Z</time>
      </trkpt>
      <trkpt lat="45.9929" lon="4.18328">
        <ele>366</ele>
        <time>2026-03-19T14:40:47Z</time>
      </trkpt>
      <trkpt lat="45.99272" lon="4.18332">
        <ele>364</ele>
        <time>2026-03-19T14:40:52Z</time>
      </trkpt>
      <trkpt lat="45.99249" lon="4.18335">
        <ele>362</ele>
        <time>2026-03-19T14:40:57Z</time>
      </trkpt>
      <trkpt lat="45.99235" lon="4.18337">
        <ele>359</ele>
        <time>2026-03-19T14:41:00Z</time>
      </trkpt>
      <trkpt lat="45.99224" lon="4.18341">
        <ele>357</ele>
        <time>2026-03-19T14:41:03Z</time>
      </trkpt>
      <trkpt lat="45.9908" lon="4.18425">
        <ele>337</ele>
        <time>2026-03-19T14:41:39Z</time>
      </trkpt>
      <trkpt lat="45.99066" lon="4.18429">
        <ele>336</ele>
        <time>2026-03-19T14:41:43Z</time>
      </trkpt>
      <trkpt lat="45.99057" lon="4.18439">
        <ele>336</ele>
        <time>2026-03-19T14:41:45Z</time>
      </trkpt>
      <trkpt lat="45.99049" lon="4.18447">
        <ele>336</ele>
        <time>2026-03-19T14:41:48Z</time>
      </trkpt>
      <trkpt lat="45.99032" lon="4.18461">
        <ele>335</ele>
        <time>2026-03-19T14:41:52Z</time>
      </trkpt>
      <trkpt lat="45.99005" lon="4.18476">
        <ele>335</ele>
        <time>2026-03-19T14:41:59Z</time>
      </trkpt>
      <trkpt lat="45.98993" lon="4.18482">
        <ele>335</ele>
        <time>2026-03-19T14:42:02Z</time>
      </trkpt>
      <trkpt lat="45.98983" lon="4.18484">
        <ele>335</ele>
        <time>2026-03-19T14:42:04Z</time>
      </trkpt>
      <trkpt lat="45.98972" lon="4.18484">
        <ele>336</ele>
        <time>2026-03-19T14:42:07Z</time>
      </trkpt>
      <trkpt lat="45.98961" lon="4.18481">
        <ele>336</ele>
        <time>2026-03-19T14:42:09Z</time>
      </trkpt>
      <trkpt lat="45.98897" lon="4.18454">
        <ele>335</ele>
        <time>2026-03-19T14:42:25Z</time>
      </trkpt>
      <trkpt lat="45.98888" lon="4.18456">
        <ele>335</ele>
        <time>2026-03-19T14:42:27Z</time>
      </trkpt>
      <trkpt lat="45.98846" lon="4.1845">
        <ele>334</ele>
        <time>2026-03-19T14:42:37Z</time>
      </trkpt>
      <trkpt lat="45.98822" lon="4.18453">
        <ele>334</ele>
        <time>2026-03-19T14:42:43Z</time>
      </trkpt>
      <trkpt lat="45.98795" lon="4.18459">
        <ele>334</ele>
        <time>2026-03-19T14:42:49Z</time>
      </trkpt>
      <trkpt lat="45.98752" lon="4.18479">
        <ele>336</ele>
        <time>2026-03-19T14:43:00Z</time>
      </trkpt>
      <trkpt lat="45.98722" lon="4.18506">
        <ele>338</ele>
        <time>2026-03-19T14:43:08Z</time>
      </trkpt>
      <trkpt lat="45.98696" lon="4.18534">
        <ele>338</ele>
        <time>2026-03-19T14:43:15Z</time>
      </trkpt>
      <trkpt lat="45.98657" lon="4.18558">
        <ele>337</ele>
        <time>2026-03-19T14:43:25Z</time>
      </trkpt>
      <trkpt lat="45.9864" lon="4.18571">
        <ele>337</ele>
        <time>2026-03-19T14:43:30Z</time>
      </trkpt>
      <trkpt lat="45.98622" lon="4.1859">
        <ele>337</ele>
        <time>2026-03-19T14:43:35Z</time>
      </trkpt>
      <trkpt lat="45.98585" lon="4.18645">
        <ele>338</ele>
        <time>2026-03-19T14:43:47Z</time>
      </trkpt>
      <trkpt lat="45.98571" lon="4.18676">
        <ele>338</ele>
        <time>2026-03-19T14:43:53Z</time>
      </trkpt>
      <trkpt lat="45.98565" lon="4.18708">
        <ele>338</ele>
        <time>2026-03-19T14:43:59Z</time>
      </trkpt>
      <trkpt lat="45.98564" lon="4.18735">
        <ele>339</ele>
        <time>2026-03-19T14:44:03Z</time>
      </trkpt>
      <trkpt lat="45.98572" lon="4.18791">
        <ele>339</ele>
        <time>2026-03-19T14:44:12Z</time>
      </trkpt>
      <trkpt lat="45.98575" lon="4.18813">
        <ele>338</ele>
        <time>2026-03-19T14:44:16Z</time>
      </trkpt>
      <trkpt lat="45.98583" lon="4.18847">
        <ele>339</ele>
        <time>2026-03-19T14:44:22Z</time>
      </trkpt>
      <trkpt lat="45.98585" lon="4.18862">
        <ele>339</ele>
        <time>2026-03-19T14:44:24Z</time>
      </trkpt>
      <trkpt lat="45.98579" lon="4.18924">
        <ele>338</ele>
        <time>2026-03-19T14:44:35Z</time>
      </trkpt>
      <trkpt lat="45.9858" lon="4.18949">
        <ele>339</ele>
        <time>2026-03-19T14:44:39Z</time>
      </trkpt>
      <trkpt lat="45.98589" lon="4.1899">
        <ele>342</ele>
        <time>2026-03-19T14:44:46Z</time>
      </trkpt>
      <trkpt lat="45.98594" lon="4.19006">
        <ele>343</ele>
        <time>2026-03-19T14:44:48Z</time>
      </trkpt>
      <trkpt lat="45.98599" lon="4.19064">
        <ele>343</ele>
        <time>2026-03-19T14:44:58Z</time>
      </trkpt>
      <trkpt lat="45.98602" lon="4.19129">
        <ele>345</ele>
        <time>2026-03-19T14:45:08Z</time>
      </trkpt>
      <trkpt lat="45.98601" lon="4.19147">
        <ele>345</ele>
        <time>2026-03-19T14:45:11Z</time>
      </trkpt>
      <trkpt lat="45.98588" lon="4.19228">
        <ele>345</ele>
        <time>2026-03-19T14:45:25Z</time>
      </trkpt>
      <trkpt lat="45.9858" lon="4.1937">
        <ele>342</ele>
        <time>2026-03-19T14:45:48Z</time>
      </trkpt>
      <trkpt lat="45.9858" lon="4.19416">
        <ele>338</ele>
        <time>2026-03-19T14:45:55Z</time>
      </trkpt>
      <trkpt lat="45.98585" lon="4.1945">
        <ele>337</ele>
        <time>2026-03-19T14:46:01Z</time>
      </trkpt>
      <trkpt lat="45.98589" lon="4.19469">
        <ele>336</ele>
        <time>2026-03-19T14:46:04Z</time>
      </trkpt>
      <trkpt lat="45.986" lon="4.19526">
        <ele>333</ele>
        <time>2026-03-19T14:46:14Z</time>
      </trkpt>
      <trkpt lat="45.98596" lon="4.1953">
        <ele>332</ele>
        <time>2026-03-19T14:46:15Z</time>
      </trkpt>
      <trkpt lat="45.98585" lon="4.19538">
        <ele>331</ele>
        <time>2026-03-19T14:46:18Z</time>
      </trkpt>
      <trkpt lat="45.9857" lon="4.19544">
        <ele>329</ele>
        <time>2026-03-19T14:46:22Z</time>
      </trkpt>
      <trkpt lat="45.98568" lon="4.19511">
        <ele>330</ele>
        <time>2026-03-19T14:46:27Z</time>
      </trkpt>
      <trkpt lat="45.98565" lon="4.19483">
        <ele>331</ele>
        <time>2026-03-19T14:46:32Z</time>
      </trkpt>
      <trkpt lat="45.98551" lon="4.1939">
        <ele>335</ele>
        <time>2026-03-19T14:46:47Z</time>
      </trkpt>
      <trkpt lat="45.98546" lon="4.1939">
        <ele>334</ele>
        <time>2026-03-19T14:46:48Z</time>
      </trkpt>
      <trkpt lat="45.98542" lon="4.19389">
        <ele>334</ele>
        <time>2026-03-19T14:46:49Z</time>
      </trkpt>
      <trkpt lat="45.98534" lon="4.19381">
        <ele>333</ele>
        <time>2026-03-19T14:46:51Z</time>
      </trkpt>
      <trkpt lat="45.98511" lon="4.19362">
        <ele>332</ele>
        <time>2026-03-19T14:46:58Z</time>
      </trkpt>
      <trkpt lat="45.98469" lon="4.19337">
        <ele>330</ele>
        <time>2026-03-19T14:47:08Z</time>
      </trkpt>
      <trkpt lat="45.9846" lon="4.19329">
        <ele>330</ele>
        <time>2026-03-19T14:47:11Z</time>
      </trkpt>
      <trkpt lat="45.98452" lon="4.19325">
        <ele>329</ele>
        <time>2026-03-19T14:47:13Z</time>
      </trkpt>
      <trkpt lat="45.98421" lon="4.19321">
        <ele>325</ele>
        <time>2026-03-19T14:47:20Z</time>
      </trkpt>
      <trkpt lat="45.98398" lon="4.19322">
        <ele>322</ele>
        <time>2026-03-19T14:47:25Z</time>
      </trkpt>
      <trkpt lat="45.98395" lon="4.19324">
        <ele>322</ele>
        <time>2026-03-19T14:47:26Z</time>
      </trkpt>
      <trkpt lat="45.98393" lon="4.19327">
        <ele>321</ele>
        <time>2026-03-19T14:47:27Z</time>
      </trkpt>
      <trkpt lat="45.9839" lon="4.19335">
        <ele>321</ele>
        <time>2026-03-19T14:47:28Z</time>
      </trkpt>
      <trkpt lat="45.98387" lon="4.19348">
        <ele>320</ele>
        <time>2026-03-19T14:47:30Z</time>
      </trkpt>
      <trkpt lat="45.98381" lon="4.19375">
        <ele>318</ele>
        <time>2026-03-19T14:47:35Z</time>
      </trkpt>
      <trkpt lat="45.98381" lon="4.19419">
        <ele>316</ele>
        <time>2026-03-19T14:47:42Z</time>
      </trkpt>
      <trkpt lat="45.98384" lon="4.19441">
        <ele>315</ele>
        <time>2026-03-19T14:47:46Z</time>
      </trkpt>
      <trkpt lat="45.98393" lon="4.19482">
        <ele>315</ele>
        <time>2026-03-19T14:47:53Z</time>
      </trkpt>
      <trkpt lat="45.98394" lon="4.19512">
        <ele>315</ele>
        <time>2026-03-19T14:47:58Z</time>
      </trkpt>
      <trkpt lat="45.98374" lon="4.19582">
        <ele>316</ele>
        <time>2026-03-19T14:48:10Z</time>
      </trkpt>
      <trkpt lat="45.98361" lon="4.19616">
        <ele>317</ele>
        <time>2026-03-19T14:48:16Z</time>
      </trkpt>
      <trkpt lat="45.98347" lon="4.19632">
        <ele>317</ele>
        <time>2026-03-19T14:48:20Z</time>
      </trkpt>
      <trkpt lat="45.98309" lon="4.19661">
        <ele>319</ele>
        <time>2026-03-19T14:48:30Z</time>
      </trkpt>
      <trkpt lat="45.98272" lon="4.19702">
        <ele>321</ele>
        <time>2026-03-19T14:48:41Z</time>
      </trkpt>
      <trkpt lat="45.98178" lon="4.19959">
        <ele>324</ele>
        <time>2026-03-19T14:49:29Z</time>
      </trkpt>
      <trkpt lat="45.98216" lon="4.20032">
        <ele>321</ele>
        <time>2026-03-19T14:49:43Z</time>
      </trkpt>
      <trkpt lat="45.98233" lon="4.20111">
        <ele>322</ele>
        <time>2026-03-19T14:49:57Z</time>
      </trkpt>
      <trkpt lat="45.98574" lon="4.20456">
        <ele>320</ele>
        <time>2026-03-19T14:51:34Z</time>
      </trkpt>
      <trkpt lat="45.9866" lon="4.20591">
        <ele>323</ele>
        <time>2026-03-19T14:52:04Z</time>
      </trkpt>
      <trkpt lat="45.98672" lon="4.20655">
        <ele>326</ele>
        <time>2026-03-19T14:52:15Z</time>
      </trkpt>
      <trkpt lat="45.98664" lon="4.20706">
        <ele>326</ele>
        <time>2026-03-19T14:52:23Z</time>
      </trkpt>
      <trkpt lat="45.98644" lon="4.20731">
        <ele>330</ele>
        <time>2026-03-19T14:52:29Z</time>
      </trkpt>
      <trkpt lat="45.98471" lon="4.20614">
        <ele>344</ele>
        <time>2026-03-19T14:53:14Z</time>
      </trkpt>
      <trkpt lat="45.98379" lon="4.20471">
        <ele>341</ele>
        <time>2026-03-19T14:53:45Z</time>
      </trkpt>
      <trkpt lat="45.98285" lon="4.20445">
        <ele>348</ele>
        <time>2026-03-19T14:54:08Z</time>
      </trkpt>
      <trkpt lat="45.98215" lon="4.205">
        <ele>351</ele>
        <time>2026-03-19T14:54:26Z</time>
      </trkpt>
      <trkpt lat="45.98154" lon="4.20512">
        <ele>355</ele>
        <time>2026-03-19T14:54:41Z</time>
      </trkpt>
      <trkpt lat="45.98103" lon="4.20545">
        <ele>360</ele>
        <time>2026-03-19T14:54:54Z</time>
      </trkpt>
      <trkpt lat="45.9808" lon="4.20513">
        <ele>361</ele>
        <time>2026-03-19T14:55:01Z</time>
      </trkpt>
      <trkpt lat="45.98074" lon="4.20367">
        <ele>368</ele>
        <time>2026-03-19T14:55:25Z</time>
      </trkpt>
      <trkpt lat="45.98096" lon="4.20277">
        <ele>370</ele>
        <time>2026-03-19T14:55:41Z</time>
      </trkpt>
      <trkpt lat="45.98089" lon="4.2019">
        <ele>367</ele>
        <time>2026-03-19T14:55:55Z</time>
      </trkpt>
      <trkpt lat="45.98043" lon="4.20135">
        <ele>367</ele>
        <time>2026-03-19T14:56:09Z</time>
      </trkpt>
      <trkpt lat="45.97887" lon="4.20089">
        <ele>378</ele>
        <time>2026-03-19T14:56:46Z</time>
      </trkpt>
      <trkpt lat="45.97705" lon="4.19998">
        <ele>381</ele>
        <time>2026-03-19T14:57:31Z</time>
      </trkpt>
      <trkpt lat="45.97636" lon="4.19995">
        <ele>385</ele>
        <time>2026-03-19T14:57:47Z</time>
      </trkpt>
      <trkpt lat="45.97516" lon="4.20092">
        <ele>397</ele>
        <time>2026-03-19T14:58:19Z</time>
      </trkpt>
      <trkpt lat="45.97393" lon="4.2005">
        <ele>398</ele>
        <time>2026-03-19T14:58:49Z</time>
      </trkpt>
      <trkpt lat="45.97311" lon="4.19971">
        <ele>398</ele>
        <time>2026-03-19T14:59:12Z</time>
      </trkpt>
      <trkpt lat="45.97268" lon="4.19811">
        <ele>400</ele>
        <time>2026-03-19T14:59:40Z</time>
      </trkpt>
      <trkpt lat="45.97339" lon="4.19652">
        <ele>404</ele>
        <time>2026-03-19T15:00:10Z</time>
      </trkpt>
      <trkpt lat="45.97348" lon="4.19622">
        <ele>405</ele>
        <time>2026-03-19T15:00:16Z</time>
      </trkpt>
      <trkpt lat="45.97356" lon="4.19586">
        <ele>406</ele>
        <time>2026-03-19T15:00:22Z</time>
      </trkpt>
      <trkpt lat="45.97355" lon="4.1956">
        <ele>406</ele>
        <time>2026-03-19T15:00:26Z</time>
      </trkpt>
      <trkpt lat="45.97352" lon="4.19544">
        <ele>407</ele>
        <time>2026-03-19T15:00:29Z</time>
      </trkpt>
      <trkpt lat="45.97351" lon="4.19541">
        <ele>407</ele>
        <time>2026-03-19T15:00:29Z</time>
      </trkpt>
      <trkpt lat="45.97341" lon="4.19518">
        <ele>407</ele>
        <time>2026-03-19T15:00:34Z</time>
      </trkpt>
      <trkpt lat="45.97314" lon="4.19479">
        <ele>408</ele>
        <time>2026-03-19T15:00:43Z</time>
      </trkpt>
      <trkpt lat="45.97242" lon="4.19413">
        <ele>412</ele>
        <time>2026-03-19T15:01:02Z</time>
      </trkpt>
      <trkpt lat="45.97227" lon="4.19391">
        <ele>411</ele>
        <time>2026-03-19T15:01:07Z</time>
      </trkpt>
      <trkpt lat="45.9722" lon="4.19362">
        <ele>411</ele>
        <time>2026-03-19T15:01:12Z</time>
      </trkpt>
      <trkpt lat="45.9703" lon="4.19241">
        <ele>413</ele>
        <time>2026-03-19T15:02:01Z</time>
      </trkpt>
      <trkpt lat="45.9697" lon="4.19257">
        <ele>413</ele>
        <time>2026-03-19T15:02:15Z</time>
      </trkpt>
      <trkpt lat="45.96941" lon="4.19244">
        <ele>413</ele>
        <time>2026-03-19T15:02:22Z</time>
      </trkpt>
      <trkpt lat="45.96827" lon="4.19164">
        <ele>411</ele>
        <time>2026-03-19T15:02:52Z</time>
      </trkpt>
      <trkpt lat="45.96735" lon="4.19166">
        <ele>406</ele>
        <time>2026-03-19T15:03:13Z</time>
      </trkpt>
      <trkpt lat="45.9652" lon="4.19259">
        <ele>375</ele>
        <time>2026-03-19T15:04:06Z</time>
      </trkpt>
      <trkpt lat="45.96413" lon="4.19265">
        <ele>366</ele>
        <time>2026-03-19T15:04:31Z</time>
      </trkpt>
      <trkpt lat="45.96337" lon="4.19321">
        <ele>354</ele>
        <time>2026-03-19T15:04:51Z</time>
      </trkpt>
      <trkpt lat="45.9633" lon="4.19308">
        <ele>354</ele>
        <time>2026-03-19T15:04:53Z</time>
      </trkpt>
      <trkpt lat="45.96315" lon="4.19316">
        <ele>351</ele>
        <time>2026-03-19T15:04:57Z</time>
      </trkpt>
      <trkpt lat="45.96259" lon="4.19322">
        <ele>341</ele>
        <time>2026-03-19T15:05:10Z</time>
      </trkpt>
      <trkpt lat="45.96258" lon="4.19346">
        <ele>341</ele>
        <time>2026-03-19T15:05:14Z</time>
      </trkpt>
      <trkpt lat="45.96172" lon="4.19355">
        <ele>342</ele>
        <time>2026-03-19T15:05:34Z</time>
      </trkpt>
      <trkpt lat="45.96165" lon="4.19373">
        <ele>345</ele>
        <time>2026-03-19T15:05:38Z</time>
      </trkpt>
      <trkpt lat="45.96149" lon="4.19368">
        <ele>346</ele>
        <time>2026-03-19T15:05:42Z</time>
      </trkpt>
      <trkpt lat="45.9615" lon="4.19351">
        <ele>343</ele>
        <time>2026-03-19T15:05:44Z</time>
      </trkpt>
      <trkpt lat="45.96134" lon="4.19333">
        <ele>342</ele>
        <time>2026-03-19T15:05:49Z</time>
      </trkpt>
      <trkpt lat="45.96116" lon="4.19353">
        <ele>348</ele>
        <time>2026-03-19T15:05:54Z</time>
      </trkpt>
      <trkpt lat="45.96104" lon="4.19338">
        <ele>346</ele>
        <time>2026-03-19T15:05:58Z</time>
      </trkpt>
      <trkpt lat="45.96115" lon="4.19303">
        <ele>345</ele>
        <time>2026-03-19T15:06:04Z</time>
      </trkpt>
      <trkpt lat="45.96113" lon="4.19287">
        <ele>345</ele>
        <time>2026-03-19T15:06:07Z</time>
      </trkpt>
      <trkpt lat="45.96131" lon="4.19199">
        <ele>349</ele>
        <time>2026-03-19T15:06:22Z</time>
      </trkpt>
      <trkpt lat="45.9613" lon="4.1919">
        <ele>351</ele>
        <time>2026-03-19T15:06:23Z</time>
      </trkpt>
      <trkpt lat="45.96127" lon="4.19174">
        <ele>353</ele>
        <time>2026-03-19T15:06:26Z</time>
      </trkpt>
      <trkpt lat="45.96122" lon="4.19155">
        <ele>355</ele>
        <time>2026-03-19T15:06:29Z</time>
      </trkpt>
      <trkpt lat="45.96115" lon="4.19132">
        <ele>356</ele>
        <time>2026-03-19T15:06:33Z</time>
      </trkpt>
      <trkpt lat="45.96104" lon="4.19106">
        <ele>359</ele>
        <time>2026-03-19T15:06:38Z</time>
      </trkpt>
      <trkpt lat="45.9607" lon="4.19031">
        <ele>366</ele>
        <time>2026-03-19T15:06:53Z</time>
      </trkpt>
      <trkpt lat="45.96066" lon="4.19014">
        <ele>367</ele>
        <time>2026-03-19T15:06:56Z</time>
      </trkpt>
      <trkpt lat="45.96064" lon="4.19001">
        <ele>368</ele>
        <time>2026-03-19T15:06:58Z</time>
      </trkpt>
      <trkpt lat="45.96066" lon="4.18977">
        <ele>370</ele>
        <time>2026-03-19T15:07:02Z</time>
      </trkpt>
      <trkpt lat="45.96069" lon="4.18963">
        <ele>370</ele>
        <time>2026-03-19T15:07:04Z</time>
      </trkpt>
      <trkpt lat="45.96075" lon="4.18939">
        <ele>372</ele>
        <time>2026-03-19T15:07:08Z</time>
      </trkpt>
      <trkpt lat="45.96082" lon="4.18899">
        <ele>375</ele>
        <time>2026-03-19T15:07:15Z</time>
      </trkpt>
      <trkpt lat="45.96084" lon="4.18881">
        <ele>376</ele>
        <time>2026-03-19T15:07:18Z</time>
      </trkpt>
      <trkpt lat="45.96085" lon="4.18858">
        <ele>378</ele>
        <time>2026-03-19T15:07:22Z</time>
      </trkpt>
      <trkpt lat="45.96085" lon="4.18821">
        <ele>380</ele>
        <time>2026-03-19T15:07:28Z</time>
      </trkpt>
      <trkpt lat="45.9609" lon="4.18816">
        <ele>380</ele>
        <time>2026-03-19T15:07:29Z</time>
      </trkpt>
      <trkpt lat="45.96095" lon="4.18807">
        <ele>380</ele>
        <time>2026-03-19T15:07:31Z</time>
      </trkpt>
      <trkpt lat="45.96129" lon="4.18727">
        <ele>378</ele>
        <time>2026-03-19T15:07:46Z</time>
      </trkpt>
      <trkpt lat="45.9616" lon="4.18661">
        <ele>381</ele>
        <time>2026-03-19T15:07:59Z</time>
      </trkpt>
      <trkpt lat="45.96171" lon="4.18639">
        <ele>382</ele>
        <time>2026-03-19T15:08:04Z</time>
      </trkpt>
      <trkpt lat="45.96181" lon="4.18626">
        <ele>382</ele>
        <time>2026-03-19T15:08:07Z</time>
      </trkpt>
      <trkpt lat="45.96197" lon="4.18614">
        <ele>382</ele>
        <time>2026-03-19T15:08:11Z</time>
      </trkpt>
      <trkpt lat="45.96256" lon="4.18577">
        <ele>381</ele>
        <time>2026-03-19T15:08:26Z</time>
      </trkpt>
      <trkpt lat="45.96263" lon="4.18571">
        <ele>381</ele>
        <time>2026-03-19T15:08:28Z</time>
      </trkpt>
      <trkpt lat="45.96266" lon="4.18566">
        <ele>381</ele>
        <time>2026-03-19T15:08:29Z</time>
      </trkpt>
      <trkpt lat="45.96263" lon="4.18562">
        <ele>381</ele>
        <time>2026-03-19T15:08:30Z</time>
      </trkpt>
      <trkpt lat="45.96262" lon="4.18555">
        <ele>381</ele>
        <time>2026-03-19T15:08:31Z</time>
      </trkpt>
      <trkpt lat="45.96261" lon="4.1849">
        <ele>383</ele>
        <time>2026-03-19T15:08:42Z</time>
      </trkpt>
      <trkpt lat="45.96254" lon="4.18461">
        <ele>384</ele>
        <time>2026-03-19T15:08:47Z</time>
      </trkpt>
      <trkpt lat="45.9625" lon="4.18453">
        <ele>384</ele>
        <time>2026-03-19T15:08:48Z</time>
      </trkpt>
      <trkpt lat="45.96243" lon="4.18446">
        <ele>384</ele>
        <time>2026-03-19T15:08:50Z</time>
      </trkpt>
      <trkpt lat="45.96182" lon="4.18401">
        <ele>389</ele>
        <time>2026-03-19T15:09:06Z</time>
      </trkpt>
      <trkpt lat="45.96148" lon="4.18381">
        <ele>391</ele>
        <time>2026-03-19T15:09:15Z</time>
      </trkpt>
      <trkpt lat="45.96138" lon="4.18373">
        <ele>391</ele>
        <time>2026-03-19T15:09:17Z</time>
      </trkpt>
      <trkpt lat="45.96132" lon="4.18363">
        <ele>392</ele>
        <time>2026-03-19T15:09:20Z</time>
      </trkpt>
      <trkpt lat="45.96125" lon="4.18328">
        <ele>392</ele>
        <time>2026-03-19T15:09:26Z</time>
      </trkpt>
      <trkpt lat="45.96139" lon="4.18319">
        <ele>391</ele>
        <time>2026-03-19T15:09:29Z</time>
      </trkpt>
      <trkpt lat="45.96181" lon="4.18298">
        <ele>391</ele>
        <time>2026-03-19T15:09:40Z</time>
      </trkpt>
      <trkpt lat="45.96198" lon="4.18288">
        <ele>390</ele>
        <time>2026-03-19T15:09:44Z</time>
      </trkpt>
      <trkpt lat="45.9622" lon="4.18269">
        <ele>390</ele>
        <time>2026-03-19T15:09:50Z</time>
      </trkpt>
      <trkpt lat="45.96228" lon="4.1826">
        <ele>390</ele>
        <time>2026-03-19T15:09:52Z</time>
      </trkpt>
      <trkpt lat="45.96256" lon="4.18232">
        <ele>391</ele>
        <time>2026-03-19T15:10:00Z</time>
      </trkpt>
      <trkpt lat="45.96279" lon="4.18199">
        <ele>392</ele>
        <time>2026-03-19T15:10:08Z</time>
      </trkpt>
      <trkpt lat="45.96294" lon="4.18185">
        <ele>392</ele>
        <time>2026-03-19T15:10:12Z</time>
      </trkpt>
      <trkpt lat="45.96301" lon="4.18174">
        <ele>393</ele>
        <time>2026-03-19T15:10:14Z</time>
      </trkpt>
      <trkpt lat="45.96311" lon="4.18143">
        <ele>393</ele>
        <time>2026-03-19T15:10:20Z</time>
      </trkpt>
      <trkpt lat="45.9629" lon="4.18135">
        <ele>394</ele>
        <time>2026-03-19T15:10:25Z</time>
      </trkpt>
      <trkpt lat="45.96272" lon="4.18131">
        <ele>394</ele>
        <time>2026-03-19T15:10:29Z</time>
      </trkpt>
      <trkpt lat="45.96266" lon="4.18122">
        <ele>395</ele>
        <time>2026-03-19T15:10:31Z</time>
      </trkpt>
      <trkpt lat="45.96263" lon="4.18113">
        <ele>395</ele>
        <time>2026-03-19T15:10:33Z</time>
      </trkpt>
      <trkpt lat="45.96256" lon="4.18069">
        <ele>396</ele>
        <time>2026-03-19T15:10:40Z</time>
      </trkpt>
      <trkpt lat="45.9629" lon="4.18079">
        <ele>394</ele>
        <time>2026-03-19T15:10:48Z</time>
      </trkpt>
      <trkpt lat="45.96313" lon="4.18085">
        <ele>393</ele>
        <time>2026-03-19T15:10:54Z</time>
      </trkpt>
      <trkpt lat="45.9632" lon="4.1808">
        <ele>393</ele>
        <time>2026-03-19T15:10:56Z</time>
      </trkpt>
      <trkpt lat="45.96325" lon="4.18069">
        <ele>392</ele>
        <time>2026-03-19T15:10:58Z</time>
      </trkpt>
      <trkpt lat="45.9633" lon="4.18055">
        <ele>391</ele>
        <time>2026-03-19T15:11:00Z</time>
      </trkpt>
      <trkpt lat="45.9633" lon="4.18032">
        <ele>390</ele>
        <time>2026-03-19T15:11:04Z</time>
      </trkpt>
      <trkpt lat="45.96313" lon="4.17902">
        <ele>387</ele>
        <time>2026-03-19T15:11:25Z</time>
      </trkpt>
      <trkpt lat="45.96311" lon="4.17894">
        <ele>387</ele>
        <time>2026-03-19T15:11:27Z</time>
      </trkpt>
      <trkpt lat="45.96242" lon="4.1781">
        <ele>391</ele>
        <time>2026-03-19T15:11:48Z</time>
      </trkpt>
      <trkpt lat="45.96253" lon="4.17765">
        <ele>390</ele>
        <time>2026-03-19T15:11:56Z</time>
      </trkpt>
      <trkpt lat="45.96272" lon="4.17687">
        <ele>390</ele>
        <time>2026-03-19T15:12:09Z</time>
      </trkpt>
      <trkpt lat="45.96288" lon="4.17626">
        <ele>389</ele>
        <time>2026-03-19T15:12:20Z</time>
      </trkpt>
      <trkpt lat="45.96303" lon="4.17573">
        <ele>389</ele>
        <time>2026-03-19T15:12:29Z</time>
      </trkpt>
      <trkpt lat="45.96308" lon="4.17545">
        <ele>390</ele>
        <time>2026-03-19T15:12:34Z</time>
      </trkpt>
      <trkpt lat="45.96311" lon="4.17513">
        <ele>390</ele>
        <time>2026-03-19T15:12:39Z</time>
      </trkpt>
      <trkpt lat="45.96312" lon="4.17488">
        <ele>391</ele>
        <time>2026-03-19T15:12:43Z</time>
      </trkpt>
      <trkpt lat="45.96316" lon="4.17487">
        <ele>391</ele>
        <time>2026-03-19T15:12:44Z</time>
      </trkpt>
      <trkpt lat="45.96322" lon="4.17484">
        <ele>392</ele>
        <time>2026-03-19T15:12:45Z</time>
      </trkpt>
      <trkpt lat="45.96325" lon="4.17477">
        <ele>392</ele>
        <time>2026-03-19T15:12:47Z</time>
      </trkpt>
      <trkpt lat="45.96344" lon="4.17399">
        <ele>396</ele>
        <time>2026-03-19T15:13:00Z</time>
      </trkpt>
      <trkpt lat="45.96345" lon="4.17384">
        <ele>396</ele>
        <time>2026-03-19T15:13:03Z</time>
      </trkpt>
      <trkpt lat="45.96332" lon="4.17241">
        <ele>404</ele>
        <time>2026-03-19T15:13:26Z</time>
      </trkpt>
      <trkpt lat="45.96328" lon="4.17193">
        <ele>406</ele>
        <time>2026-03-19T15:13:34Z</time>
      </trkpt>
      <trkpt lat="45.96331" lon="4.17172">
        <ele>407</ele>
        <time>2026-03-19T15:13:37Z</time>
      </trkpt>
      <trkpt lat="45.96339" lon="4.17141">
        <ele>407</ele>
        <time>2026-03-19T15:13:43Z</time>
      </trkpt>
      <trkpt lat="45.96351" lon="4.17119">
        <ele>407</ele>
        <time>2026-03-19T15:13:47Z</time>
      </trkpt>
      <trkpt lat="45.96521" lon="4.1696">
        <ele>406</ele>
        <time>2026-03-19T15:14:35Z</time>
      </trkpt>
      <trkpt lat="45.96696" lon="4.16794">
        <ele>403</ele>
        <time>2026-03-19T15:15:24Z</time>
      </trkpt>
      <trkpt lat="45.96735" lon="4.16759">
        <ele>404</ele>
        <time>2026-03-19T15:15:34Z</time>
      </trkpt>
      <trkpt lat="45.96795" lon="4.16706">
        <ele>403</ele>
        <time>2026-03-19T15:15:51Z</time>
      </trkpt>
      <trkpt lat="45.96804" lon="4.16694">
        <ele>403</ele>
        <time>2026-03-19T15:15:54Z</time>
      </trkpt>
      <trkpt lat="45.96857" lon="4.16656">
        <ele>402</ele>
        <time>2026-03-19T15:16:07Z</time>
      </trkpt>
      <trkpt lat="45.96922" lon="4.16603">
        <ele>400</ele>
        <time>2026-03-19T15:16:25Z</time>
      </trkpt>
      <trkpt lat="45.96929" lon="4.16589">
        <ele>399</ele>
        <time>2026-03-19T15:16:28Z</time>
      </trkpt>
      <trkpt lat="45.96936" lon="4.16573">
        <ele>398</ele>
        <time>2026-03-19T15:16:31Z</time>
      </trkpt>
      <trkpt lat="45.96942" lon="4.16555">
        <ele>396</ele>
        <time>2026-03-19T15:16:34Z</time>
      </trkpt>
      <trkpt lat="45.96944" lon="4.16524">
        <ele>395</ele>
        <time>2026-03-19T15:16:39Z</time>
      </trkpt>
      <trkpt lat="45.96939" lon="4.16502">
        <ele>396</ele>
        <time>2026-03-19T15:16:43Z</time>
      </trkpt>
      <trkpt lat="45.96934" lon="4.1649">
        <ele>397</ele>
        <time>2026-03-19T15:16:45Z</time>
      </trkpt>
      <trkpt lat="45.96926" lon="4.16463">
        <ele>399</ele>
        <time>2026-03-19T15:16:50Z</time>
      </trkpt>
      <trkpt lat="45.96923" lon="4.16443">
        <ele>399</ele>
        <time>2026-03-19T15:16:53Z</time>
      </trkpt>
      <trkpt lat="45.96924" lon="4.16436">
        <ele>399</ele>
        <time>2026-03-19T15:16:54Z</time>
      </trkpt>
      <trkpt lat="45.96929" lon="4.1642">
        <ele>398</ele>
        <time>2026-03-19T15:16:57Z</time>
      </trkpt>
      <trkpt lat="45.96939" lon="4.16409">
        <ele>396</ele>
        <time>2026-03-19T15:17:00Z</time>
      </trkpt>
      <trkpt lat="45.96947" lon="4.16406">
        <ele>395</ele>
        <time>2026-03-19T15:17:02Z</time>
      </trkpt>
      <trkpt lat="45.96969" lon="4.16387">
        <ele>393</ele>
        <time>2026-03-19T15:17:08Z</time>
      </trkpt>
      <trkpt lat="45.96977" lon="4.16382">
        <ele>392</ele>
        <time>2026-03-19T15:17:10Z</time>
      </trkpt>
      <trkpt lat="45.9698" lon="4.16379">
        <ele>392</ele>
        <time>2026-03-19T15:17:11Z</time>
      </trkpt>
      <trkpt lat="45.96993" lon="4.16371">
        <ele>391</ele>
        <time>2026-03-19T15:17:14Z</time>
      </trkpt>
      <trkpt lat="45.96999" lon="4.16372">
        <ele>390</ele>
        <time>2026-03-19T15:17:16Z</time>
      </trkpt>
      <trkpt lat="45.97144" lon="4.16331">
        <ele>371</ele>
        <time>2026-03-19T15:17:50Z</time>
      </trkpt>
      <trkpt lat="45.97151" lon="4.16327">
        <ele>369</ele>
        <time>2026-03-19T15:17:52Z</time>
      </trkpt>
      <trkpt lat="45.9719" lon="4.16318">
        <ele>361</ele>
        <time>2026-03-19T15:18:01Z</time>
      </trkpt>
      <trkpt lat="45.97194" lon="4.16321">
        <ele>360</ele>
        <time>2026-03-19T15:18:02Z</time>
      </trkpt>
      <trkpt lat="45.97198" lon="4.16334">
        <ele>359</ele>
        <time>2026-03-19T15:18:04Z</time>
      </trkpt>
      <trkpt lat="45.97189" lon="4.16373">
        <ele>358</ele>
        <time>2026-03-19T15:18:11Z</time>
      </trkpt>
      <trkpt lat="45.97186" lon="4.16382">
        <ele>358</ele>
        <time>2026-03-19T15:18:13Z</time>
      </trkpt>
      <trkpt lat="45.97181" lon="4.16397">
        <ele>357</ele>
        <time>2026-03-19T15:18:15Z</time>
      </trkpt>
      <trkpt lat="45.97176" lon="4.16411">
        <ele>357</ele>
        <time>2026-03-19T15:18:18Z</time>
      </trkpt>
      <trkpt lat="45.97176" lon="4.16418">
        <ele>356</ele>
        <time>2026-03-19T15:18:19Z</time>
      </trkpt>
      <trkpt lat="45.97178" lon="4.16423">
        <ele>355</ele>
        <time>2026-03-19T15:18:20Z</time>
      </trkpt>
      <trkpt lat="45.97181" lon="4.16426">
        <ele>354</ele>
        <time>2026-03-19T15:18:21Z</time>
      </trkpt>
      <trkpt lat="45.97334" lon="4.16362">
        <ele>333</ele>
        <time>2026-03-19T15:18:58Z</time>
      </trkpt>
      <trkpt lat="45.97337" lon="4.16364">
        <ele>332</ele>
        <time>2026-03-19T15:18:59Z</time>
      </trkpt>
      <trkpt lat="45.97339" lon="4.1637">
        <ele>331</ele>
        <time>2026-03-19T15:19:00Z</time>
      </trkpt>
      <trkpt lat="45.97337" lon="4.16381">
        <ele>331</ele>
        <time>2026-03-19T15:19:02Z</time>
      </trkpt>
      <trkpt lat="45.97321" lon="4.16403">
        <ele>332</ele>
        <time>2026-03-19T15:19:07Z</time>
      </trkpt>
      <trkpt lat="45.97317" lon="4.16411">
        <ele>333</ele>
        <time>2026-03-19T15:19:09Z</time>
      </trkpt>
      <trkpt lat="45.97318" lon="4.16415">
        <ele>332</ele>
        <time>2026-03-19T15:19:09Z</time>
      </trkpt>
      <trkpt lat="45.9732" lon="4.16415">
        <ele>332</ele>
        <time>2026-03-19T15:19:10Z</time>
      </trkpt>
      <trkpt lat="45.97336" lon="4.16409">
        <ele>329</ele>
        <time>2026-03-19T15:19:14Z</time>
      </trkpt>
      <trkpt lat="45.97352" lon="4.16392">
        <ele>328</ele>
        <time>2026-03-19T15:19:18Z</time>
      </trkpt>
      <trkpt lat="45.97366" lon="4.1638">
        <ele>326</ele>
        <time>2026-03-19T15:19:22Z</time>
      </trkpt>
      <trkpt lat="45.97388" lon="4.16357">
        <ele>325</ele>
        <time>2026-03-19T15:19:28Z</time>
      </trkpt>
      <trkpt lat="45.974" lon="4.16348">
        <ele>325</ele>
        <time>2026-03-19T15:19:32Z</time>
      </trkpt>
      <trkpt lat="45.97446" lon="4.16343">
        <ele>317</ele>
        <time>2026-03-19T15:19:42Z</time>
      </trkpt>
      <trkpt lat="45.97453" lon="4.1635">
        <ele>316</ele>
        <time>2026-03-19T15:19:44Z</time>
      </trkpt>
      <trkpt lat="45.97488" lon="4.16411">
        <ele>307</ele>
        <time>2026-03-19T15:19:57Z</time>
      </trkpt>
      <trkpt lat="45.97521" lon="4.16484">
        <ele>307</ele>
        <time>2026-03-19T15:20:11Z</time>
      </trkpt>
      <trkpt lat="45.97528" lon="4.16494">
        <ele>307</ele>
        <time>2026-03-19T15:20:14Z</time>
      </trkpt>
      <trkpt lat="45.97534" lon="4.16502">
        <ele>307</ele>
        <time>2026-03-19T15:20:16Z</time>
      </trkpt>
      <trkpt lat="45.97541" lon="4.16505">
        <ele>308</ele>
        <time>2026-03-19T15:20:17Z</time>
      </trkpt>
      <trkpt lat="45.97562" lon="4.16479">
        <ele>306</ele>
        <time>2026-03-19T15:20:24Z</time>
      </trkpt>
      <trkpt lat="45.97588" lon="4.16457">
        <ele>306</ele>
        <time>2026-03-19T15:20:31Z</time>
      </trkpt>
      <trkpt lat="45.97607" lon="4.16448">
        <ele>306</ele>
        <time>2026-03-19T15:20:35Z</time>
      </trkpt>
      <trkpt lat="45.97658" lon="4.16421">
        <ele>307</ele>
        <time>2026-03-19T15:20:48Z</time>
      </trkpt>
      <trkpt lat="45.97679" lon="4.16335">
        <ele>307</ele>
        <time>2026-03-19T15:21:03Z</time>
      </trkpt>
      <trkpt lat="45.97677" lon="4.16292">
        <ele>308</ele>
        <time>2026-03-19T15:21:10Z</time>
      </trkpt>
      <trkpt lat="45.97672" lon="4.16247">
        <ele>309</ele>
        <time>2026-03-19T15:21:17Z</time>
      </trkpt>
      <trkpt lat="45.97672" lon="4.16243">
        <ele>309</ele>
        <time>2026-03-19T15:21:18Z</time>
      </trkpt>
      <trkpt lat="45.97651" lon="4.16162">
        <ele>308</ele>
        <time>2026-03-19T15:21:32Z</time>
      </trkpt>
      <trkpt lat="45.97624" lon="4.16072">
        <ele>310</ele>
        <time>2026-03-19T15:21:48Z</time>
      </trkpt>
      <trkpt lat="45.97611" lon="4.16014">
        <ele>311</ele>
        <time>2026-03-19T15:21:58Z</time>
      </trkpt>
      <trkpt lat="45.97604" lon="4.15973">
        <ele>312</ele>
        <time>2026-03-19T15:22:05Z</time>
      </trkpt>
      <trkpt lat="45.9759" lon="4.15874">
        <ele>314</ele>
        <time>2026-03-19T15:22:21Z</time>
      </trkpt>
      <trkpt lat="45.9759" lon="4.15861">
        <ele>313</ele>
        <time>2026-03-19T15:22:23Z</time>
      </trkpt>
      <trkpt lat="45.97592" lon="4.15853">
        <ele>313</ele>
        <time>2026-03-19T15:22:25Z</time>
      </trkpt>
      <trkpt lat="45.97597" lon="4.15842">
        <ele>313</ele>
        <time>2026-03-19T15:22:27Z</time>
      </trkpt>
      <trkpt lat="45.976" lon="4.15837">
        <ele>313</ele>
        <time>2026-03-19T15:22:28Z</time>
      </trkpt>
      <trkpt lat="45.97605" lon="4.15833">
        <ele>313</ele>
        <time>2026-03-19T15:22:29Z</time>
      </trkpt>
      <trkpt lat="45.9761" lon="4.15831">
        <ele>313</ele>
        <time>2026-03-19T15:22:30Z</time>
      </trkpt>
      <trkpt lat="45.97618" lon="4.1583">
        <ele>313</ele>
        <time>2026-03-19T15:22:32Z</time>
      </trkpt>
      <trkpt lat="45.97641" lon="4.15833">
        <ele>314</ele>
        <time>2026-03-19T15:22:38Z</time>
      </trkpt>
      <trkpt lat="45.97651" lon="4.15831">
        <ele>314</ele>
        <time>2026-03-19T15:22:40Z</time>
      </trkpt>
      <trkpt lat="45.97653" lon="4.15834">
        <ele>314</ele>
        <time>2026-03-19T15:22:41Z</time>
      </trkpt>
      <trkpt lat="45.97657" lon="4.15836">
        <ele>314</ele>
        <time>2026-03-19T15:22:42Z</time>
      </trkpt>
      <trkpt lat="45.97706" lon="4.15851">
        <ele>318</ele>
        <time>2026-03-19T15:22:53Z</time>
      </trkpt>
      <trkpt lat="45.97713" lon="4.15829">
        <ele>318</ele>
        <time>2026-03-19T15:22:57Z</time>
      </trkpt>
      <trkpt lat="45.97736" lon="4.15813">
        <ele>319</ele>
        <time>2026-03-19T15:23:03Z</time>
      </trkpt>
      <trkpt lat="45.97762" lon="4.15805">
        <ele>320</ele>
        <time>2026-03-19T15:23:09Z</time>
      </trkpt>
      <trkpt lat="45.97808" lon="4.15845">
        <ele>323</ele>
        <time>2026-03-19T15:23:22Z</time>
      </trkpt>
      <trkpt lat="45.97808" lon="4.15846">
        <ele>323</ele>
        <time>2026-03-19T15:23:22Z</time>
      </trkpt>
      <trkpt lat="45.97827" lon="4.1591">
        <ele>325</ele>
        <time>2026-03-19T15:23:33Z</time>
      </trkpt>
      <trkpt lat="45.97855" lon="4.16002">
        <ele>325</ele>
        <time>2026-03-19T15:23:50Z</time>
      </trkpt>
      <trkpt lat="45.97863" lon="4.16033">
        <ele>326</ele>
        <time>2026-03-19T15:23:55Z</time>
      </trkpt>
      <trkpt lat="45.97871" lon="4.16065">
        <ele>328</ele>
        <time>2026-03-19T15:24:01Z</time>
      </trkpt>
      <trkpt lat="45.97875" lon="4.16094">
        <ele>330</ele>
        <time>2026-03-19T15:24:05Z</time>
      </trkpt>
      <trkpt lat="45.97883" lon="4.16178">
        <ele>332</ele>
        <time>2026-03-19T15:24:19Z</time>
      </trkpt>
      <trkpt lat="45.97899" lon="4.16157">
        <ele>334</ele>
        <time>2026-03-19T15:24:24Z</time>
      </trkpt>
      <trkpt lat="45.97932" lon="4.16122">
        <ele>337</ele>
        <time>2026-03-19T15:24:34Z</time>
      </trkpt>
      <trkpt lat="45.97953" lon="4.16097">
        <ele>339</ele>
        <time>2026-03-19T15:24:40Z</time>
      </trkpt>
      <trkpt lat="45.97964" lon="4.16089">
        <ele>339</ele>
        <time>2026-03-19T15:24:43Z</time>
      </trkpt>
      <trkpt lat="45.97976" lon="4.16087">
        <ele>340</ele>
        <time>2026-03-19T15:24:46Z</time>
      </trkpt>
      <trkpt lat="45.97995" lon="4.16089">
        <ele>342</ele>
        <time>2026-03-19T15:24:50Z</time>
      </trkpt>
      <trkpt lat="45.98055" lon="4.16099">
        <ele>348</ele>
        <time>2026-03-19T15:25:04Z</time>
      </trkpt>
      <trkpt lat="45.98081" lon="4.16102">
        <ele>350</ele>
        <time>2026-03-19T15:25:10Z</time>
      </trkpt>
      <trkpt lat="45.98102" lon="4.16105">
        <ele>351</ele>
        <time>2026-03-19T15:25:15Z</time>
      </trkpt>
      <trkpt lat="45.98128" lon="4.16136">
        <ele>354</ele>
        <time>2026-03-19T15:25:23Z</time>
      </trkpt>
      <trkpt lat="45.98215" lon="4.16225">
        <ele>359</ele>
        <time>2026-03-19T15:25:48Z</time>
      </trkpt>
      <trkpt lat="45.98251" lon="4.16279">
        <ele>361</ele>
        <time>2026-03-19T15:26:00Z</time>
      </trkpt>
      <trkpt lat="45.98269" lon="4.16328">
        <ele>362</ele>
        <time>2026-03-19T15:26:09Z</time>
      </trkpt>
      <trkpt lat="45.98278" lon="4.1636">
        <ele>362</ele>
        <time>2026-03-19T15:26:15Z</time>
      </trkpt>
      <trkpt lat="45.98285" lon="4.16375">
        <ele>362</ele>
        <time>2026-03-19T15:26:18Z</time>
      </trkpt>
      <trkpt lat="45.98294" lon="4.16385">
        <ele>362</ele>
        <time>2026-03-19T15:26:21Z</time>
      </trkpt>
      <trkpt lat="45.98476" lon="4.16408">
        <ele>364</ele>
        <time>2026-03-19T15:27:03Z</time>
      </trkpt>
      <trkpt lat="45.98485" lon="4.16412">
        <ele>364</ele>
        <time>2026-03-19T15:27:05Z</time>
      </trkpt>
      <trkpt lat="45.9849" lon="4.16427">
        <ele>365</ele>
        <time>2026-03-19T15:27:08Z</time>
      </trkpt>
      <trkpt lat="45.98501" lon="4.1647">
        <ele>365</ele>
        <time>2026-03-19T15:27:16Z</time>
      </trkpt>
      <trkpt lat="45.98507" lon="4.16468">
        <ele>365</ele>
        <time>2026-03-19T15:27:17Z</time>
      </trkpt>
      <trkpt lat="45.98522" lon="4.16471">
        <ele>365</ele>
        <time>2026-03-19T15:27:20Z</time>
      </trkpt>
      <trkpt lat="45.98555" lon="4.1648">
        <ele>366</ele>
        <time>2026-03-19T15:27:28Z</time>
      </trkpt>
      <trkpt lat="45.98618" lon="4.16485">
        <ele>368</ele>
        <time>2026-03-19T15:27:43Z</time>
      </trkpt>
      <trkpt lat="45.98644" lon="4.16489">
        <ele>370</ele>
        <time>2026-03-19T15:27:49Z</time>
      </trkpt>
      <trkpt lat="45.98652" lon="4.16492">
        <ele>370</ele>
        <time>2026-03-19T15:27:51Z</time>
      </trkpt>
      <trkpt lat="45.98687" lon="4.16508">
        <ele>372</ele>
        <time>2026-03-19T15:28:00Z</time>
      </trkpt>
      <trkpt lat="45.98736" lon="4.16536">
        <ele>374</ele>
        <time>2026-03-19T15:28:12Z</time>
      </trkpt>
      <trkpt lat="45.98768" lon="4.16563">
        <ele>376</ele>
        <time>2026-03-19T15:28:21Z</time>
      </trkpt>
      <trkpt lat="45.98837" lon="4.16615">
        <ele>381</ele>
        <time>2026-03-19T15:28:39Z</time>
      </trkpt>
      <trkpt lat="45.98853" lon="4.1663">
        <ele>382</ele>
        <time>2026-03-19T15:28:43Z</time>
      </trkpt>
      <trkpt lat="45.98865" lon="4.16638">
        <ele>383</ele>
        <time>2026-03-19T15:28:46Z</time>
      </trkpt>
      <trkpt lat="45.9889" lon="4.16643">
        <ele>385</ele>
        <time>2026-03-19T15:28:52Z</time>
      </trkpt>
      <trkpt lat="45.99008" lon="4.1667">
        <ele>394</ele>
        <time>2026-03-19T15:29:20Z</time>
      </trkpt>
      <trkpt lat="45.99028" lon="4.16678">
        <ele>395</ele>
        <time>2026-03-19T15:29:25Z</time>
      </trkpt>
      <trkpt lat="45.99067" lon="4.16699">
        <ele>399</ele>
        <time>2026-03-19T15:29:35Z</time>
      </trkpt>
      <trkpt lat="45.99109" lon="4.16728">
        <ele>403</ele>
        <time>2026-03-19T15:29:46Z</time>
      </trkpt>
      <trkpt lat="45.99134" lon="4.1675">
        <ele>405</ele>
        <time>2026-03-19T15:29:52Z</time>
      </trkpt>
      <trkpt lat="45.99139" lon="4.16756">
        <ele>406</ele>
        <time>2026-03-19T15:29:54Z</time>
      </trkpt>
      <trkpt lat="45.99151" lon="4.16774">
        <ele>406</ele>
        <time>2026-03-19T15:29:58Z</time>
      </trkpt>
      <trkpt lat="45.99172" lon="4.16798">
        <ele>408</ele>
        <time>2026-03-19T15:30:04Z</time>
      </trkpt>
      <trkpt lat="45.99195" lon="4.16823">
        <ele>408</ele>
        <time>2026-03-19T15:30:11Z</time>
      </trkpt>
      <trkpt lat="45.99218" lon="4.16858">
        <ele>408</ele>
        <time>2026-03-19T15:30:19Z</time>
      </trkpt>
      <trkpt lat="45.99251" lon="4.16898">
        <ele>409</ele>
        <time>2026-03-19T15:30:29Z</time>
      </trkpt>
      <trkpt lat="45.99254" lon="4.169">
        <ele>409</ele>
        <time>2026-03-19T15:30:30Z</time>
      </trkpt>
      <trkpt lat="45.99258" lon="4.16951">
        <ele>410</ele>
        <time>2026-03-19T15:30:38Z</time>
      </trkpt>
      <trkpt lat="45.9926" lon="4.16965">
        <ele>410</ele>
        <time>2026-03-19T15:30:40Z</time>
      </trkpt>
      <trkpt lat="45.99271" lon="4.16976">
        <ele>411</ele>
        <time>2026-03-19T15:30:43Z</time>
      </trkpt>
      <trkpt lat="45.9932" lon="4.17028">
        <ele>411</ele>
        <time>2026-03-19T15:30:58Z</time>
      </trkpt>
      <trkpt lat="45.99408" lon="4.17178">
        <ele>416</ele>
        <time>2026-03-19T15:31:30Z</time>
      </trkpt>
      <trkpt lat="45.99436" lon="4.17227">
        <ele>417</ele>
        <time>2026-03-19T15:31:40Z</time>
      </trkpt>
      <trkpt lat="45.99445" lon="4.17238">
        <ele>418</ele>
        <time>2026-03-19T15:31:43Z</time>
      </trkpt>
      <trkpt lat="45.9947" lon="4.17264">
        <ele>421</ele>
        <time>2026-03-19T15:31:50Z</time>
      </trkpt>
      <trkpt lat="45.99508" lon="4.17303">
        <ele>425</ele>
        <time>2026-03-19T15:32:01Z</time>
      </trkpt>
      <trkpt lat="45.99528" lon="4.17324">
        <ele>426</ele>
        <time>2026-03-19T15:32:06Z</time>
      </trkpt>
      <trkpt lat="45.99536" lon="4.17324">
        <ele>427</ele>
        <time>2026-03-19T15:32:08Z</time>
      </trkpt>
      <trkpt lat="45.99543" lon="4.17342">
        <ele>427</ele>
        <time>2026-03-19T15:32:12Z</time>
      </trkpt>
      <trkpt lat="45.99554" lon="4.17374">
        <ele>427</ele>
        <time>2026-03-19T15:32:18Z</time>
      </trkpt>
      <trkpt lat="45.99575" lon="4.17434">
        <ele>427</ele>
        <time>2026-03-19T15:32:28Z</time>
      </trkpt>
      <trkpt lat="45.99584" lon="4.17451">
        <ele>428</ele>
        <time>2026-03-19T15:32:32Z</time>
      </trkpt>
      <trkpt lat="45.99595" lon="4.17464">
        <ele>428</ele>
        <time>2026-03-19T15:32:35Z</time>
      </trkpt>
      <trkpt lat="45.99598" lon="4.17466">
        <ele>428</ele>
        <time>2026-03-19T15:32:36Z</time>
      </trkpt>
      <trkpt lat="45.99608" lon="4.17473">
        <ele>429</ele>
        <time>2026-03-19T15:32:39Z</time>
      </trkpt>
      <trkpt lat="45.9972" lon="4.1753">
        <ele>435</ele>
        <time>2026-03-19T15:33:06Z</time>
      </trkpt>
      <trkpt lat="45.99792" lon="4.17569">
        <ele>436</ele>
        <time>2026-03-19T15:33:24Z</time>
      </trkpt>
      <trkpt lat="45.99799" lon="4.1757">
        <ele>436</ele>
        <time>2026-03-19T15:33:26Z</time>
      </trkpt>
      <trkpt lat="45.99804" lon="4.17569">
        <ele>436</ele>
        <time>2026-03-19T15:33:27Z</time>
      </trkpt>
      <trkpt lat="45.99804" lon="4.17563">
        <ele>436</ele>
        <time>2026-03-19T15:33:28Z</time>
      </trkpt>
      <trkpt lat="45.99805" lon="4.17561">
        <ele>435</ele>
        <time>2026-03-19T15:33:28Z</time>
      </trkpt>
      <trkpt lat="45.99805" lon="4.1756">
        <ele>435</ele>
        <time>2026-03-19T15:33:29Z</time>
      </trkpt>
    </trkseg>
  </trk>
</gpx>